Time,TemperatureF,DewpointF,PressureIn,WindDirection,WindDirectionDegrees,WindSpeedMPH,WindSpeedGustMPH,Humidity,HourlyPrecipIn,Conditions,Clouds,dailyrainin,SolarRadiationWatts/m^2,SoftwareType,DateUTC
2013-04-18 00:00:00,51.8,38.8,30.25,NNW,338,0.0,5.0,61,0.00,,CLR,0.00,0.00,VWS V14.01,2013-04-18 07:00:00,
2013-04-18 00:10:00,52.1,39.1,30.25,NW,315,2.0,7.0,61,0.00,,CLR,0.00,0.00,VWS V14.01,2013-04-18 07:10:00,
2013-04-18 00:20:00,52.6,39.1,30.25,North,0,2.0,7.0,60,0.00,,CLR,0.00,0.00,VWS V14.01,2013-04-18 07:20:00,
2013-04-18 00:30:00,52.4,38.9,30.25,North,0,2.0,6.0,60,0.00,,CLR,0.00,0.00,VWS V14.01,2013-04-18 07:30:00,
2013-04-18 00:40:00,52.1,39.1,30.25,NW,315,2.0,7.0,61,0.00,,CLR,0.00,0.00,VWS V14.01,2013-04-18 07:40:00,
2013-04-18 00:50:00,51.2,39.0,30.25,NW,315,0.0,3.0,63,0.00,,CLR,0.00,0.00,VWS V14.01,2013-04-18 07:50:00,
2013-04-18 01:00:00,50.3,38.6,30.26,NW,315,0.0,5.0,64,0.00,,CLR,0.00,0.00,VWS V14.01,2013-04-18 08:00:00,
2013-04-18 01:10:00,50.6,38.9,30.26,North,0,1.0,6.0,64,0.00,,CLR,0.00,0.00,VWS V14.01,2013-04-18 08:10:00,
2013-04-18 01:20:00,51.3,39.2,30.26,North,0,2.0,6.0,63,0.00,,CLR,0.00,0.00,VWS V14.01,2013-04-18 08:20:00,
2013-04-18 01:30:00,51.4,39.2,30.26,North,0,2.0,8.0,63,0.00,,CLR,0.00,0.00,VWS V14.01,2013-04-18 08:30:00,
2013-04-18 01:40:00,51.4,39.2,30.26,North,0,2.0,10.0,63,0.00,,CLR,0.00,0.00,VWS V14.01,2013-04-18 08:40:00,
2013-04-18 01:50:00,50.8,39.1,30.25,NE,45,1.0,6.0,64,0.00,,CLR,0.00,0.00,VWS V14.01,2013-04-18 08:50:00,
2013-04-18 02:00:00,50.6,39.3,30.25,NNE,22,1.0,5.0,65,0.00,,CLR,0.00,0.00,VWS V14.01,2013-04-18 09:00:00,
2013-04-18 02:10:00,50.6,39.3,30.25,NNE,22,1.0,8.0,65,0.00,,CLR,0.00,0.00,VWS V14.01,2013-04-18 09:10:00,
2013-04-18 02:20:00,50.9,39.6,30.25,NNE,22,2.0,9.0,65,0.00,,CLR,0.00,0.00,VWS V14.01,2013-04-18 09:20:00,
2013-04-18 02:30:00,51.1,39.4,30.25,NNW,338,3.0,10.0,64,0.00,,CLR,0.00,0.00,VWS V14.01,2013-04-18 09:30:00,
2013-04-18 02:40:00,50.9,39.6,30.24,North,0,2.0,7.0,65,0.00,,CLR,0.00,0.00,VWS V14.01,2013-04-18 09:40:00,
2013-04-18 02:50:00,50.9,39.6,30.24,North,0,2.0,8.0,65,0.00,,CLR,0.00,0.00,VWS V14.01,2013-04-18 09:50:00,
2013-04-18 03:00:00,50.6,39.3,30.24,NW,315,1.0,6.0,65,0.00,,CLR,0.00,0.00,VWS V14.01,2013-04-18 10:00:00,
2013-04-18 03:10:00,50.0,39.1,30.24,NW,315,1.0,8.0,66,0.00,,CLR,0.00,0.00,VWS V14.01,2013-04-18 10:10:00,
2013-04-18 03:20:00,50.2,39.3,30.25,NNW,338,3.0,12.0,66,0.00,,CLR,0.00,0.00,VWS V14.01,2013-04-18 10:20:00,
2013-04-18 03:30:00,50.5,39.2,30.25,North,0,6.0,13.0,65,0.00,,CLR,0.00,0.00,VWS V14.01,2013-04-18 10:30:00,
2013-04-18 03:40:00,50.2,39.3,30.25,North,0,4.0,13.0,66,0.00,,CLR,0.00,0.00,VWS V14.01,2013-04-18 10:40:00,
2013-04-18 03:50:00,49.8,39.3,30.25,North,0,4.0,12.0,67,0.00,,CLR,0.00,0.00,VWS V14.01,2013-04-18 10:50:00,
2013-04-18 04:00:00,49.6,39.1,30.25,North,0,3.0,12.0,67,0.00,,CLR,0.00,0.00,VWS V14.01,2013-04-18 11:00:00,
2013-04-18 04:10:00,49.4,39.3,30.25,NNW,338,2.0,7.0,68,0.00,,CLR,0.00,0.00,VWS V14.01,2013-04-18 11:10:00,
2013-04-18 04:20:00,49.5,39.4,30.25,North,0,4.0,11.0,68,0.00,,CLR,0.00,0.00,VWS V14.01,2013-04-18 11:20:00,
2013-04-18 04:30:00,49.6,39.5,30.24,North,0,3.0,10.0,68,0.00,,CLR,0.00,0.00,VWS V14.01,2013-04-18 11:30:00,
2013-04-18 04:40:00,49.3,39.2,30.25,North,0,2.0,10.0,68,0.00,,CLR,0.00,0.00,VWS V14.01,2013-04-18 11:40:00,
2013-04-18 04:50:00,49.3,39.2,30.25,North,0,3.0,10.0,68,0.00,,CLR,0.00,0.00,VWS V14.01,2013-04-18 11:50:00,
2013-04-18 05:00:00,49.2,39.1,30.25,North,0,2.0,8.0,68,0.00,,CLR,0.00,0.00,VWS V14.01,2013-04-18 12:00:00,
2013-04-18 05:10:00,49.1,39.0,30.25,North,0,3.0,12.0,68,0.00,,CLR,0.00,0.00,VWS V14.01,2013-04-18 12:10:00,
2013-04-18 05:20:00,48.9,39.2,30.25,NNW,338,2.0,6.0,69,0.00,,CLR,0.00,0.00,VWS V14.01,2013-04-18 12:20:00,
2013-04-18 05:30:00,48.8,39.1,30.26,NNW,338,2.0,10.0,69,0.00,,CLR,0.00,0.00,VWS V14.01,2013-04-18 12:30:00,
2013-04-18 05:40:00,48.5,39.2,30.26,NNW,338,2.0,10.0,70,0.00,,CLR,0.00,0.00,VWS V14.01,2013-04-18 12:40:00,
2013-04-18 05:50:00,48.4,39.1,30.26,North,0,2.0,9.0,70,0.00,,CLR,0.00,0.00,VWS V14.01,2013-04-18 12:50:00,
2013-04-18 06:00:00,48.2,38.9,30.26,North,0,2.0,13.0,70,0.00,,CLR,0.00,0.00,VWS V14.01,2013-04-18 13:00:00,
2013-04-18 06:10:00,47.9,39.0,30.26,NW,315,1.0,4.0,71,0.00,,CLR,0.00,0.00,VWS V14.01,2013-04-18 13:10:00,
2013-04-18 06:20:00,47.8,38.9,30.26,North,0,2.0,6.0,71,0.00,,CLR,0.00,0.00,VWS V14.01,2013-04-18 13:20:00,
2013-04-18 06:30:00,48.0,39.1,30.26,North,0,1.0,7.0,71,0.00,,CLR,0.00,0.00,VWS V14.01,2013-04-18 13:30:00,
2013-04-18 06:40:00,48.3,39.0,30.26,North,0,2.0,7.0,70,0.00,,CLR,0.00,5.00,VWS V14.01,2013-04-18 13:40:00,
2013-04-18 06:50:00,48.5,39.2,30.26,NNW,338,2.0,9.0,70,0.00,,CLR,0.00,11.00,VWS V14.01,2013-04-18 13:50:00,
2013-04-18 07:00:00,48.1,38.8,30.26,NNW,338,3.0,12.0,70,0.00,,CLR,0.00,15.00,VWS V14.01,2013-04-18 14:00:00,
2013-04-18 07:10:00,47.9,39.0,30.27,NW,315,3.0,9.0,71,0.00,,CLR,0.00,19.00,VWS V14.01,2013-04-18 14:10:00,
2013-04-18 07:20:00,48.0,39.1,30.27,NNW,338,3.0,10.0,71,0.00,,CLR,0.00,23.00,VWS V14.01,2013-04-18 14:20:00,
2013-04-18 07:30:00,48.6,39.3,30.27,North,0,3.0,11.0,70,0.00,,CLR,0.00,39.00,VWS V14.01,2013-04-18 14:30:00,
2013-04-18 07:40:00,49.2,39.5,30.27,NNW,338,4.0,11.0,69,0.00,,CLR,0.00,154.00,VWS V14.01,2013-04-18 14:40:00,
2013-04-18 07:50:00,49.8,39.7,30.27,NNW,338,3.0,12.0,68,0.00,,CLR,0.00,191.00,VWS V14.01,2013-04-18 14:50:00,
2013-04-18 08:00:00,50.4,39.5,30.27,NW,315,4.0,11.0,66,0.00,,CLR,0.00,225.00,VWS V14.01,2013-04-18 15:00:00,
2013-04-18 08:10:00,50.6,39.7,30.28,NW,315,6.0,12.0,66,0.00,,CLR,0.00,259.00,VWS V14.01,2013-04-18 15:10:00,
2013-04-18 08:20:00,51.0,40.1,30.27,NW,315,4.0,13.0,66,0.00,,CLR,0.00,297.00,VWS V14.01,2013-04-18 15:20:00,
2013-04-18 08:30:00,51.6,40.2,30.27,NW,315,5.0,11.0,65,0.00,,CLR,0.00,331.00,VWS V14.01,2013-04-18 15:30:00,
2013-04-18 08:40:00,52.3,40.5,30.27,NW,315,5.0,13.0,64,0.00,,CLR,0.00,365.00,VWS V14.01,2013-04-18 15:40:00,
2013-04-18 08:50:00,53.3,40.6,30.27,NNW,338,4.0,12.0,62,0.00,,CLR,0.00,399.00,VWS V14.01,2013-04-18 15:50:00,
2013-04-18 09:00:00,54.1,41.0,30.26,NNW,338,4.0,14.0,61,0.00,,CLR,0.00,434.00,VWS V14.01,2013-04-18 16:00:00,
2013-04-18 09:10:00,54.9,41.3,30.26,North,0,5.0,14.0,60,0.00,,CLR,0.00,467.00,VWS V14.01,2013-04-18 16:10:00,
2013-04-18 09:20:00,55.6,42.0,30.26,NNW,338,5.0,11.0,60,0.00,,CLR,0.00,498.00,VWS V14.01,2013-04-18 16:20:00,
2013-04-18 09:30:00,56.1,42.0,30.26,North,0,6.0,12.0,59,0.00,,CLR,0.00,531.00,VWS V14.01,2013-04-18 16:30:00,
2013-04-18 09:40:00,56.7,42.5,30.26,NNW,338,6.0,12.0,59,0.00,,CLR,0.00,562.00,VWS V14.01,2013-04-18 16:40:00,
2013-04-18 09:50:00,57.7,42.6,30.26,North,0,5.0,12.0,57,0.00,,CLR,0.00,590.00,VWS V14.01,2013-04-18 16:50:00,
2013-04-18 10:00:00,59.0,43.3,30.26,NW,315,4.0,12.0,56,0.00,,CLR,0.00,619.00,VWS V14.01,2013-04-18 17:00:00,
2013-04-18 10:10:00,60.0,43.8,30.25,NNW,338,3.0,9.0,55,0.00,,CLR,0.00,648.00,VWS V14.01,2013-04-18 17:10:00,
2013-04-18 10:20:00,60.8,43.6,30.25,North,0,5.0,10.0,53,0.00,,CLR,0.00,673.00,VWS V14.01,2013-04-18 17:20:00,
2013-04-18 10:30:00,61.8,44.0,30.25,North,0,5.0,11.0,52,0.00,,CLR,0.00,698.00,VWS V14.01,2013-04-18 17:30:00,
2013-04-18 10:40:00,62.9,43.5,30.25,North,0,4.0,11.0,49,0.00,,CLR,0.00,724.00,VWS V14.01,2013-04-18 17:40:00,
2013-04-18 10:50:00,64.0,43.4,30.25,NNW,338,4.0,11.0,47,0.00,,CLR,0.00,747.00,VWS V14.01,2013-04-18 17:50:00,
2013-04-18 11:00:00,65.0,43.7,30.25,NNW,338,4.0,10.0,46,0.00,,CLR,0.00,769.00,VWS V14.01,2013-04-18 18:00:00,
2013-04-18 11:10:00,66.1,44.2,30.25,North,0,4.0,7.0,45,0.00,,CLR,0.00,790.00,VWS V14.01,2013-04-18 18:10:00,
2013-04-18 11:20:00,67.4,44.8,30.25,NW,315,2.0,7.0,44,0.00,,CLR,0.00,810.00,VWS V14.01,2013-04-18 18:20:00,
2013-04-18 11:30:00,68.4,43.2,30.25,NW,315,3.0,9.0,40,0.00,,CLR,0.00,829.00,VWS V14.01,2013-04-18 18:30:00,
2013-04-18 11:40:00,68.8,43.5,30.24,NW,315,4.0,10.0,40,0.00,,CLR,0.00,845.00,VWS V14.01,2013-04-18 18:40:00,
2013-04-18 11:50:00,69.7,43.0,30.24,NW,315,3.0,8.0,38,0.00,,CLR,0.00,860.00,VWS V14.01,2013-04-18 18:50:00,
2013-04-18 12:00:00,70.7,43.9,30.24,NW,315,2.0,7.0,38,0.00,,CLR,0.00,875.00,VWS V14.01,2013-04-18 19:00:00,
2013-04-18 12:10:00,71.3,42.3,30.24,NNW,338,1.0,7.0,35,0.00,,CLR,0.00,886.00,VWS V14.01,2013-04-18 19:10:00,
2013-04-18 12:20:00,72.2,43.1,30.23,West,270,1.0,4.0,35,0.00,,CLR,0.00,896.00,VWS V14.01,2013-04-18 19:20:00,
2013-04-18 12:30:00,72.5,43.3,30.23,WSW,248,1.0,5.0,35,0.00,,CLR,0.00,905.00,VWS V14.01,2013-04-18 19:30:00,
2013-04-18 12:40:00,72.9,44.4,30.22,WNW,292,2.0,7.0,36,0.00,,CLR,0.00,913.00,VWS V14.01,2013-04-18 19:40:00,
2013-04-18 12:50:00,73.1,43.1,30.22,SW,225,1.0,7.0,34,0.00,,CLR,0.00,918.00,VWS V14.01,2013-04-18 19:50:00,
2013-04-18 13:00:00,73.5,42.7,30.21,South,180,1.0,4.0,33,0.00,,CLR,0.00,921.00,VWS V14.01,2013-04-18 20:00:00,
2013-04-18 13:10:00,74.4,42.7,30.21,SW,225,2.0,7.0,32,0.00,,CLR,0.00,920.00,VWS V14.01,2013-04-18 20:10:00,
2013-04-18 13:20:00,74.7,41.2,30.21,WSW,248,1.0,7.0,30,0.00,,CLR,0.00,922.00,VWS V14.01,2013-04-18 20:20:00,
2013-04-18 13:30:00,75.2,43.3,30.21,NE,45,1.0,7.0,32,0.00,,CLR,0.00,920.00,VWS V14.01,2013-04-18 20:30:00,
2013-04-18 13:40:00,75.1,43.3,30.20,WSW,248,2.0,8.0,32,0.00,,CLR,0.00,916.00,VWS V14.01,2013-04-18 20:40:00,
2013-04-18 13:50:00,75.4,44.3,30.20,South,180,1.0,6.0,33,0.00,,CLR,0.00,912.00,VWS V14.01,2013-04-18 20:50:00,
2013-04-18 14:00:00,75.7,44.6,30.20,SW,225,2.0,8.0,33,0.00,,CLR,0.00,907.00,VWS V14.01,2013-04-18 21:00:00,
2013-04-18 14:10:00,75.8,43.0,30.20,South,180,1.0,7.0,31,0.00,,CLR,0.00,899.00,VWS V14.01,2013-04-18 21:10:00,
2013-04-18 14:20:00,76.5,43.7,30.19,SW,225,2.0,7.0,31,0.00,,CLR,0.00,889.00,VWS V14.01,2013-04-18 21:20:00,
2013-04-18 14:30:00,76.5,43.7,30.19,SW,225,4.0,10.0,31,0.00,,CLR,0.00,878.00,VWS V14.01,2013-04-18 21:30:00,
2013-04-18 14:40:00,76.7,42.1,30.18,SW,225,3.0,9.0,29,0.00,,CLR,0.00,865.00,VWS V14.01,2013-04-18 21:40:00,
2013-04-18 14:50:00,77.0,46.5,30.18,WSW,248,3.0,11.0,34,0.00,,CLR,0.00,850.00,VWS V14.01,2013-04-18 21:50:00,
2013-04-18 15:00:00,77.4,44.4,30.18,West,270,2.0,6.0,31,0.00,,CLR,0.00,834.00,VWS V14.01,2013-04-18 22:00:00,
2013-04-18 15:10:00,77.5,43.7,30.17,North,0,1.0,6.0,30,0.00,,CLR,0.00,817.00,VWS V14.01,2013-04-18 22:10:00,
2013-04-18 15:20:00,78.7,45.6,30.17,WSW,248,2.0,7.0,31,0.00,,CLR,0.00,797.00,VWS V14.01,2013-04-18 22:20:00,
2013-04-18 15:30:00,78.6,42.8,30.17,WNW,292,3.0,8.0,28,0.00,,CLR,0.00,779.00,VWS V14.01,2013-04-18 22:30:00,
2013-04-18 15:40:00,78.7,46.4,30.16,West,270,3.0,9.0,32,0.00,,CLR,0.00,758.00,VWS V14.01,2013-04-18 22:40:00,
2013-04-18 15:50:00,79.0,43.2,30.16,SW,225,3.0,9.0,28,0.00,,CLR,0.00,735.00,VWS V14.01,2013-04-18 22:50:00,
2013-04-18 16:00:00,79.2,46.0,30.16,SW,225,2.0,6.0,31,0.00,,CLR,0.00,712.00,VWS V14.01,2013-04-18 23:00:00,
2013-04-18 16:10:00,79.2,44.2,30.15,WSW,248,2.0,5.0,29,0.00,,CLR,0.00,687.00,VWS V14.01,2013-04-18 23:10:00,
2013-04-18 16:20:00,79.4,42.5,30.15,WSW,248,3.0,10.0,27,0.00,,CLR,0.00,662.00,VWS V14.01,2013-04-18 23:20:00,
2013-04-18 16:30:00,79.2,42.4,30.15,WSW,248,3.0,9.0,27,0.00,,CLR,0.00,634.00,VWS V14.01,2013-04-18 23:30:00,
2013-04-18 16:40:00,78.9,43.1,30.14,SW,225,4.0,11.0,28,0.00,,CLR,0.00,604.00,VWS V14.01,2013-04-18 23:40:00,
2013-04-18 16:50:00,79.4,44.4,30.14,SW,225,3.0,10.0,29,0.00,,CLR,0.00,572.00,VWS V14.01,2013-04-18 23:50:00,
2013-04-18 17:00:00,79.4,47.0,30.14,South,180,2.0,8.0,32,0.00,,CLR,0.00,539.00,VWS V14.01,2013-04-19 00:00:00,
2013-04-18 17:10:00,79.9,48.3,30.14,West,270,2.0,8.0,33,0.00,,CLR,0.00,506.00,VWS V14.01,2013-04-19 00:10:00,
2013-04-18 17:20:00,79.2,48.4,30.14,WSW,248,5.0,12.0,34,0.00,,CLR,0.00,475.00,VWS V14.01,2013-04-19 00:20:00,
2013-04-18 17:30:00,78.2,47.6,30.15,WSW,248,6.0,13.0,34,0.00,,CLR,0.00,440.00,VWS V14.01,2013-04-19 00:30:00,
2013-04-18 17:40:00,77.9,48.1,30.15,WSW,248,5.0,14.0,35,0.00,,CLR,0.00,407.00,VWS V14.01,2013-04-19 00:40:00,
2013-04-18 17:50:00,77.8,47.2,30.15,WSW,248,4.0,10.0,34,0.00,,CLR,0.00,374.00,VWS V14.01,2013-04-19 00:50:00,
2013-04-18 18:00:00,77.4,47.6,30.15,WSW,248,5.0,12.0,35,0.00,,CLR,0.00,340.00,VWS V14.01,2013-04-19 01:00:00,
2013-04-18 18:10:00,77.2,48.2,30.15,West,270,3.0,11.0,36,0.00,,CLR,0.00,306.00,VWS V14.01,2013-04-19 01:10:00,
2013-04-18 18:20:00,76.9,48.7,30.15,SW,225,3.0,7.0,37,0.00,,CLR,0.00,278.00,VWS V14.01,2013-04-19 01:20:00,
2013-04-18 18:30:00,76.6,49.1,30.15,West,270,3.0,8.0,38,0.00,,CLR,0.00,245.00,VWS V14.01,2013-04-19 01:30:00,
2013-04-18 18:40:00,76.0,48.6,30.15,West,270,4.0,10.0,38,0.00,,CLR,0.00,203.00,VWS V14.01,2013-04-19 01:40:00,
2013-04-18 18:50:00,75.9,48.5,30.15,WSW,248,2.0,5.0,38,0.00,,CLR,0.00,171.00,VWS V14.01,2013-04-19 01:50:00,
2013-04-18 19:00:00,75.2,47.9,30.16,West,270,3.0,8.0,38,0.00,,CLR,0.00,139.00,VWS V14.01,2013-04-19 02:00:00,
2013-04-18 19:10:00,74.8,47.5,30.16,WSW,248,1.0,6.0,38,0.00,,CLR,0.00,108.00,VWS V14.01,2013-04-19 02:10:00,
2013-04-18 19:20:00,73.8,46.6,30.16,WSW,248,2.0,7.0,38,0.00,,CLR,0.00,79.00,VWS V14.01,2013-04-19 02:20:00,
2013-04-18 19:30:00,72.5,46.8,30.16,WSW,248,2.0,6.0,40,0.00,,CLR,0.00,45.00,VWS V14.01,2013-04-19 02:30:00,
2013-04-18 19:40:00,71.5,46.6,30.17,WSW,248,1.0,5.0,41,0.00,,CLR,0.00,25.00,VWS V14.01,2013-04-19 02:40:00,
2013-04-18 19:50:00,70.3,46.2,30.17,WSW,248,0.0,3.0,42,0.00,,CLR,0.00,10.00,VWS V14.01,2013-04-19 02:50:00,
2013-04-18 20:00:00,69.0,46.8,30.17,WSW,248,0.0,1.0,45,0.00,,CLR,0.00,2.00,VWS V14.01,2013-04-19 03:00:00,
2013-04-18 20:10:00,66.7,47.5,30.17,North,0,0.0,3.0,50,0.00,,CLR,0.00,0.00,VWS V14.01,2013-04-19 03:10:00,
2013-04-18 20:20:00,64.7,46.7,30.17,NE,45,2.0,5.0,52,0.00,,CLR,0.00,0.00,VWS V14.01,2013-04-19 03:20:00,
2013-04-18 20:30:00,63.6,46.7,30.18,NE,45,1.0,4.0,54,0.00,,CLR,0.00,0.00,VWS V14.01,2013-04-19 03:30:00,
2013-04-18 20:40:00,63.5,46.6,30.18,NE,45,0.0,1.0,54,0.00,,CLR,0.00,0.00,VWS V14.01,2013-04-19 03:40:00,
2013-04-18 20:50:00,62.8,46.4,30.19,NE,45,0.0,3.0,55,0.00,,CLR,0.00,0.00,VWS V14.01,2013-04-19 03:50:00,
2013-04-18 21:00:00,62.2,46.3,30.19,NE,45,0.0,3.0,56,0.00,,CLR,0.00,0.00,VWS V14.01,2013-04-19 04:00:00,
2013-04-18 21:10:00,62.0,46.1,30.20,NNE,22,0.0,1.0,56,0.00,,CLR,0.00,0.00,VWS V14.01,2013-04-19 04:10:00,
2013-04-18 21:20:00,61.5,46.1,30.20,NNE,22,0.0,3.0,57,0.00,,CLR,0.00,0.00,VWS V14.01,2013-04-19 04:20:00,
2013-04-18 21:30:00,60.3,45.9,30.20,NNE,22,0.0,3.0,59,0.00,,CLR,0.00,0.00,VWS V14.01,2013-04-19 04:30:00,
2013-04-18 21:40:00,59.8,45.9,30.21,NNE,22,1.0,5.0,60,0.00,,CLR,0.00,0.00,VWS V14.01,2013-04-19 04:40:00,
2013-04-18 21:50:00,59.6,45.7,30.21,NE,45,1.0,3.0,60,0.00,,CLR,0.00,0.00,VWS V14.01,2013-04-19 04:50:00,
2013-04-18 22:00:00,59.5,45.6,30.21,NE,45,0.0,3.0,60,0.00,,CLR,0.00,0.00,VWS V14.01,2013-04-19 05:00:00,
2013-04-18 22:10:00,59.5,45.6,30.20,NE,45,0.0,0.0,60,0.00,,CLR,0.00,0.00,VWS V14.01,2013-04-19 05:10:00,
2013-04-18 22:20:00,59.1,45.2,30.20,NE,45,0.0,1.0,60,0.00,,CLR,0.00,0.00,VWS V14.01,2013-04-19 05:20:00,
2013-04-18 22:30:00,59.0,45.6,30.20,NE,45,0.0,1.0,61,0.00,,CLR,0.00,0.00,VWS V14.01,2013-04-19 05:30:00,
2013-04-18 22:40:00,57.5,45.4,30.19,NE,45,0.0,1.0,64,0.00,,CLR,0.00,0.00,VWS V14.01,2013-04-19 05:40:00,
2013-04-18 22:50:00,56.4,45.6,30.20,NE,45,0.0,3.0,67,0.00,,CLR,0.00,0.00,VWS V14.01,2013-04-19 05:50:00,
2013-04-18 23:00:00,55.8,45.0,30.20,NE,45,0.0,2.0,67,0.00,,CLR,0.00,0.00,VWS V14.01,2013-04-19 06:00:00,
2013-04-18 23:10:00,56.0,45.2,30.20,NE,45,0.0,2.0,67,0.00,,CLR,0.00,0.00,VWS V14.01,2013-04-19 06:10:00,
2013-04-18 23:20:00,55.8,45.4,30.20,NE,45,0.0,2.0,68,0.00,,CLR,0.00,0.00,VWS V14.01,2013-04-19 06:20:00,
2013-04-18 23:30:00,55.9,45.1,30.20,NE,45,0.0,3.0,67,0.00,,CLR,0.00,0.00,VWS V14.01,2013-04-19 06:30:00,
2013-04-18 23:40:00,55.9,45.1,30.20,NW,315,0.0,3.0,67,0.00,,CLR,0.00,0.00,VWS V14.01,2013-04-19 06:40:00,
2013-04-18 23:50:00,55.8,45.0,30.19,NW,315,0.0,0.0,67,0.00,,CLR,0.00,0.00,VWS V14.01,2013-04-19 06:50:00,